KTXEAGLE7 Weather Reports


Display with metric or nautical units.
time (UTC)temp
F
wind
direction
speed
MPH
gust
MPH
rain 1hr
in
rain 24hr
in
rain mn
in
humidity
%
barometer
mb
20260508074547 66 350 2.0 5.0 0.00 0.00 0.00 85 1013.8
20260508073054 66 336 2.0 6.0 0.00 0.00 0.00 85 1014.2
20260508071545 66 5 3.0 7.0 0.00 0.00 0.00 85 1014.3
20260508070044 66 21 3.0 5.0 0.00 0.00 0.00 85 1014.4
20260508064547 67 355 3.0 8.0 0.00 0.00 0.00 85 1014.3
20260508063043 67 22 2.0 5.0 0.00 0.00 0.00 85 1014.4
20260508061542 67 355 1.0 4.0 0.00 0.00 0.00 85 1014.4
20260508060039 67 46 1.0 4.0 0.00 0.00 0.00 85 1014.0
20260508054545 66 28 2.0 5.0 0.00 0.00 0.00 85 1013.6
20260508053032 66 351 1.0 4.0 0.00 0.00 0.00 84 1014.2
20260508051537 66 348 1.0 6.0 0.00 0.00 0.00 84 1014.3
20260508050033 66 350 2.0 6.0 0.00 0.00 0.00 84 1014.4
20260508044528 66 355 2.0 6.0 0.00 0.00 0.00 84 1014.5
20260508043027 66 322 2.0 8.0 0.00 0.00 0.00 84 1014.4
20260508041527 66 360 2.0 6.0 0.00 0.00 0.00 84 1014.5
20260508040040 66 39 2.0 6.0 0.00 0.00 0.00 84 1014.3
20260508034538 66 34 1.0 6.0 0.00 0.00 0.00 84 1014.1
20260508033021 67 40 1.0 5.0 0.00 0.00 0.00 83 1013.9
20260508031522 66 22 3.0 11.0 0.00 0.00 0.00 82 1013.5
20260508030055 67 77 6.0 9.0 0.00 0.00 0.00 81 1013.6
20260508024551 67 55 3.0 6.0 0.00 0.00 0.00 81 1014.6
20260508023051 68 346 1.0 6.0 0.00 0.00 0.00 81 1014.6
20260508021551 68 39 1.0 6.0 0.00 0.00 0.00 80 1014.5
20260508020055 68 336 2.0 9.0 0.00 0.00 0.00 79 1014.9
20260508014550 69 321 2.0 9.0 0.00 0.00 0.00 78 1014.5
20260508013049 70 13 2.0 9.0 0.00 0.00 0.00 78 1014.3
20260508011549 71 309 3.0 10.0 0.00 0.00 0.00 77 1014.5
20260508010048 72 61 2.0 9.0 0.00 0.00 0.00 76 1014.2
20260508004551 72 49 4.0 9.0 0.00 0.00 0.00 76 1014.4
20260508003050 73 67 2.0 9.0 0.00 0.00 0.00 75 1014.5
20260508001546 73 26 3.0 10.0 0.00 0.00 0.00 77 1014.3
20260508000047 74 315 2.0 10.0 0.00 0.00 0.00 76 1014.6
20260507234553 74 347 4.0 11.0 0.00 0.00 0.00 76 1014.5
20260507233108 75 36 3.0 9.0 0.00 0.00 0.00 76 1014.5
20260507231546 75 5 3.0 10.0 0.00 0.00 0.00 76 1014.5
20260507230047 76 65 2.0 12.0 0.00 0.00 0.00 76 1014.6
20260507224544 76 9 3.0 11.0 0.00 0.00 0.00 76 1014.3
20260507223055 76 50 5.0 13.0 0.00 0.00 0.00 75 1014.1
20260507221543 76 355 3.0 11.0 0.00 0.00 0.00 76 1014.0
20260507220040 76 29 4.0 10.0 0.00 0.00 0.00 75 1013.9
20260507214539 76 57 6.0 14.0 0.00 0.00 0.00 75 1013.9
20260507213036 76 83 5.0 12.0 0.00 0.00 0.00 75 1014.2
20260507211545 76 55 6.0 12.0 0.00 0.00 0.00 75 1014.4
20260507210040 75 360 3.0 9.0 0.00 0.00 0.00 77 1014.8
20260507204536 75 51 6.0 12.0 0.00 0.00 0.00 76 1015.0
20260507203030 74 72 4.0 11.0 0.00 0.00 0.00 76 1014.9
20260507201526 73 44 3.0 11.0 0.00 0.00 0.00 78 1015.0
20260507200025 73 339 4.0 12.0 0.00 0.00 0.00 76 1015.2
20260507194532 72 29 3.0 12.0 0.00 0.00 0.00 77 1015.3
20260507193020 72 25 4.0 10.0 0.00 0.00 0.00 77 1015.2
20260507191519 71 347 5.0 12.0 0.00 0.00 0.00 77 1015.7
20260507190020 71 360 4.0 12.0 0.00 0.00 0.00 78 1016.0
20260507184519 71 41 4.0 15.0 0.00 0.00 0.00 78 1016.3
20260507183015 70 336 4.0 13.0 0.00 0.00 0.00 81 1016.5
20260507181510 68 320 7.0 12.0 0.00 0.00 0.00 82 1016.7
20260507180017 68 349 6.0 13.0 0.00 0.00 0.00 82 1016.6
20260507174511 67 55 8.0 14.0 0.00 0.00 0.00 82 1016.7
20260507173013 67 21 6.0 16.0 0.00 0.00 0.00 83 1017.0
20260507171503 66 328 4.0 13.0 0.00 0.00 0.00 83 1017.0
20260507170002 65 23 5.0 13.0 0.00 0.00 0.00 86 1017.1
20260507164501 64 28 4.0 13.0 0.00 0.00 0.00 87 1017.3
20260507163101 64 53 3.0 13.0 0.00 0.00 0.00 86 1017.2
20260507161604 63 325 4.0 11.0 0.00 0.00 0.00 86 1017.0
20260507160058 64 318 5.0 11.0 0.00 0.00 0.00 86 1017.0
20260507154600 64 49 6.0 16.0 0.00 0.00 0.00 86 1016.6
20260507153058 64 13 5.0 16.0 0.00 0.00 0.00 86 1016.5
20260507151557 63 30 6.0 16.0 0.00 0.00 0.00 88 1016.4
20260507150055 63 342 8.0 17.0 0.00 0.00 0.00 88 1016.1
20260507144555 62 346 5.0 16.0 0.00 0.00 0.00 89 1016.7
20260507143105 62 36 5.0 13.0 0.00 0.00 0.00 90 1016.8
20260507141554 62 51 5.0 13.0 0.00 0.00 0.00 91 1016.9
20260507140051 62 322 5.0 13.0 0.00 0.00 0.00 92 1016.8
20260507134550 63 71 8.0 18.0 0.00 0.00 0.00 92 1016.1
20260507133051 62 35 11.0 20.0 0.00 0.00 0.00 93 1015.4
20260507131545 63 16 7.0 15.0 0.00 0.00 0.00 93 1015.4
20260507130043 63 32 6.0 18.0 0.00 0.00 0.00 93 1015.6
20260507124546 63 273 5.0 13.0 0.00 0.00 0.00 92 1016.3
20260507123041 63 355 4.0 11.0 0.00 0.00 0.00 92 1016.1
20260507121536 63 17 4.0 15.0 0.00 0.00 0.00 91 1016.0
20260507120035 63 295 3.0 10.0 0.00 0.00 0.00 91 1015.6
20260507114554 63 28 4.0 8.0 0.00 0.00 0.00 91 1015.6
20260507113057 64 322 2.0 14.0 0.00 0.00 0.00 91 1015.0
20260507111537 64 304 5.0 15.0 0.00 0.00 0.00 90 1014.1
20260507110026 64 5 4.0 10.0 0.00 0.00 0.00 90 1014.9
20260507104537 64 27 2.0 10.0 0.00 0.00 0.00 90 1014.4
20260507103026 64 355 2.0 8.0 0.00 0.00 0.00 90 1014.6
20260507101525 64 350 2.0 10.0 0.00 0.00 0.00 90 1014.4
20260507100020 64 15 3.0 11.0 0.00 0.00 0.00 90 1014.1
20260507094519 64 13 3.0 10.0 0.00 0.00 0.00 89 1013.9
20260507093020 64 317 4.0 12.0 0.00 0.00 0.00 89 1013.8
20260507091519 64 40 2.0 10.0 0.00 0.00 0.00 89 1013.9
20260507090017 64 64 2.0 10.0 0.00 0.00 0.00 89 1013.8
20260507084517 64 29 2.0 11.0 0.00 0.00 0.00 88 1013.8
20260507083015 64 38 5.0 11.0 0.00 0.00 0.00 88 1013.7
20260507081520 64 78 5.0 14.0 0.00 0.00 0.00 88 1013.9